Location: Binningen
(47.7924°N, 8.7261°E)
Time: 20:40:25
(UTC+00:00)

Lacrosse 5 - Pass Details

Date: 17 May 2021
Orbit: 715 x 724 km, 57.0° (Epoch: 15 June)

Event Time Altitude Azimuth Distance (km) Brightness Sun altitude
Exits shadow 22:02:03 30° 108° (ESE) 1,281 2.8 -20.3°
Drops below altitude 10° 22:05:35 10° 67° (ENE) 2,204 4.4 -20.5°
Sets 22:08:11 0° 58° (ENE) 3,129 5.3 -20.7°
